Total_Precipitation_Accumulation
0.36 0.41 0.87 1.05 1.07 1.10 1.05 1.05 1.06 1.07 1.06 1.10 1.14 1.11 1.10 1.06 1.07 1.07 1.09 0.99 1.01 1.07 1.21 1.36 1.35 1.28 1.18 1.03 0.85 0.76 0.74 0.76 0.73 0.73 0.80 0.87 0.89 0.83 0.78 0.73 0.76 0.86 1.13
0.32 0.38 0.73 0.90 1.03 1.04 1.02 1.05 0.97 0.90 0.98 1.05 1.08 1.06 1.10 1.12 1.14 1.20 1.20 1.13 1.18 1.25 1.31 1.43 1.34 1.24 1.11 1.01 0.88 0.72 0.68 0.67 0.63 0.52 0.50 0.56 0.72 0.76 0.75 0.72 0.75 0.92 1.02
0.29 0.35 0.58 0.83 0.98 1.05 1.06 1.05 0.99 0.89 1.00 1.09 1.10 1.11 1.21 1.26 1.21 1.24 1.17 1.19 1.25 1.36 1.37 1.36 1.32 1.24 1.09 0.97 0.94 0.80 0.69 0.59 0.54 0.46 0.39 0.40 0.60 0.78 0.72 0.71 0.76 0.95 1.01
0.26 0.32 0.48 0.80 0.98 1.10 1.14 1.12 1.06 1.02 1.03 1.06 1.02 1.07 1.21 1.31 1.30 1.26 1.18 1.17 1.23 1.32 1.38 1.38 1.32 1.26 1.17 1.00 0.89 0.78 0.78 0.66 0.48 0.36 0.31 0.37 0.59 0.86 0.84 0.83 0.82 0.89 0.96
0.27 0.33 0.52 0.84 1.03 1.10 1.14 1.12 1.07 1.07 1.04 1.06 1.02 1.07 1.22 1.27 1.27 1.17 1.11 1.09 1.13 1.27 1.39 1.33 1.19 1.16 1.14 1.04 0.88 0.81 0.81 0.69 0.47 0.32 0.28 0.34 0.54 0.94 0.90 0.87 0.87 0.88 0.90
0.31 0.38 0.58 0.84 1.03 1.14 1.17 1.16 1.15 1.11 1.08 1.10 1.10 1.13 1.22 1.21 1.22 1.15 1.07 1.01 1.01 1.07 1.17 1.18 1.09 1.05 1.01 0.92 0.81 0.82 0.89 0.75 0.42 0.32 0.33 0.36 0.50 0.92 1.03 0.98 0.93 0.92 0.93
0.37 0.46 0.63 0.95 1.09 1.19 1.29 1.26 1.20 1.18 1.16 1.16 1.21 1.22 1.26 1.22 1.18 1.12 1.08 1.02 0.97 0.93 0.99 1.08 1.07 1.05 1.00 0.89 0.80 0.86 0.91 0.71 0.39 0.39 0.41 0.42 0.54 1.02 1.31 1.22 1.04 0.96 0.94
0.42 0.56 0.71 1.06 1.22 1.31 1.34 1.38 1.33 1.30 1.33 1.34 1.32 1.31 1.31 1.23 1.13 1.06 1.08 1.00 0.94 0.87 0.85 0.90 0.93 0.94 0.94 0.87 0.84 0.82 0.80 0.56 0.38 0.40 0.42 0.42 0.62 1.14 1.42 1.37 1.21 1.07 0.97
0.54 0.69 0.84 1.08 1.26 1.42 1.43 1.44 1.47 1.43 1.43 1.48 1.47 1.39 1.31 1.22 1.16 1.11 1.06 0.99 0.93 0.88 0.81 0.80 0.82 0.82 0.79 0.77 0.79 0.75 0.63 0.45 0.36 0.46 0.44 0.44 0.62 1.17 1.46 1.49 1.38 1.21 1.04
0.70 0.88 1.00 1.16 1.32 1.42 1.48 1.49 1.49 1.48 1.47 1.49 1.49 1.40 1.29 1.23 1.18 1.12 1.00 0.96 0.98 0.99 0.91 0.83 0.79 0.76 0.71 0.67 0.64 0.58 0.46 0.38 0.32 0.44 0.56 0.54 0.62 1.10 1.41 1.45 1.41 1.39 1.21
0.83 1.01 1.18 1.30 1.43 1.52 1.55 1.54 1.68 1.71 1.66 1.64 1.53 1.44 1.40 1.34 1.23 1.07 0.91 0.91 1.00 1.03 0.95 0.87 0.82 0.75 0.71 0.61 0.55 0.49 0.42 0.32 0.32 0.45 0.53 0.58 0.80 1.28 1.56 1.54 1.52 1.48 1.37
0.84 0.97 1.17 1.37 1.51 1.62 1.66 1.73 1.86 1.91 1.86 1.74 1.48 1.39 1.39 1.28 1.19 1.04 0.97 0.95 1.01 1.00 0.97 0.91 0.88 0.87 0.81 0.63 0.59 0.55 0.44 0.35 0.34 0.35 0.42 0.53 0.83 1.39 1.71 1.69 1.70 1.63 1.50
0.79 0.94 1.10 1.36 1.63 1.69 1.72 1.83 1.87 1.89 1.88 1.82 1.65 1.48 1.39 1.38 1.31 1.23 1.13 1.11 1.13 1.08 1.06 1.03 1.02 0.93 0.85 0.75 0.69 0.59 0.45 0.41 0.37 0.32 0.33 0.44 0.66 1.12 1.57 1.74 1.77 1.80 1.78
0.83 0.94 1.09 1.34 1.59 1.70 1.71 1.78 1.82 1.74 1.65 1.60 1.55 1.56 1.54 1.48 1.36 1.26 1.19 1.17 1.21 1.16 1.12 1.09 1.02 0.92 0.83 0.76 0.72 0.67 0.59 0.54 0.44 0.37 0.31 0.36 0.48 0.73 1.14 1.51 1.76 1.88 1.94
0.89 0.98 1.17 1.38 1.54 1.71 1.80 1.85 1.81 1.70 1.59 1.55 1.50 1.51 1.47 1.35 1.26 1.15 1.09 1.09 1.03 1.00 1.01 1.00 0.99 0.94 0.84 0.80 0.75 0.67 0.63 0.62 0.54 0.46 0.39 0.40 0.42 0.54 0.82 1.18 1.52 1.81 1.98
0.94 1.07 1.27 1.47 1.64 1.78 1.77 1.82 1.82 1.76 1.72 1.78 1.69 1.46 1.41 1.34 1.26 1.19 1.10 1.06 1.00 0.92 0.90 0.93 0.90 0.92 0.88 0.79 0.73 0.63 0.57 0.57 0.56 0.53 0.49 0.50 0.46 0.47 0.63 0.90 1.20 1.52 1.87
1.04 1.18 1.36 1.50 1.74 1.91 1.88 1.86 1.86 1.87 1.84 1.81 1.83 1.75 1.55 1.42 1.35 1.31 1.21 1.09 1.06 1.03 1.01 1.01 1.00 0.97 0.96 0.88 0.78 0.68 0.60 0.55 0.56 0.58 0.60 0.57 0.54 0.54 0.60 0.80 1.00 1.25 1.69
1.19 1.33 1.45 1.62 1.81 1.94 1.99 1.99 1.92 1.88 1.95 1.89 1.88 1.92 1.89 1.67 1.48 1.39 1.32 1.22 1.18 1.20 1.19 1.16 1.10 1.07 1.01 0.96 0.90 0.79 0.69 0.61 0.54 0.55 0.59 0.58 0.56 0.55 0.59 0.66 0.85 1.10 1.43
1.25 1.40 1.51 1.66 1.86 2.04 2.12 2.11 2.09 1.99 1.97 2.00 1.98 1.95 2.01 2.02 1.80 1.58 1.45 1.40 1.41 1.40 1.33 1.24 1.17 1.09 1.05 0.99 0.95 0.91 0.79 0.67 0.61 0.59 0.56 0.55 0.56 0.55 0.57 0.60 0.66 0.83 1.10
1.23 1.42 1.60 1.73 1.89 2.10 2.30 2.33 2.31 2.22 2.05 2.02 2.01 1.89 1.86 1.96 1.99 1.85 1.68 1.58 1.57 1.56 1.49 1.37 1.26 1.20 1.15 1.15 1.11 1.01 0.88 0.79 0.70 0.65 0.60 0.61 0.59 0.56 0.55 0.59 0.64 0.66 0.77
1.25 1.39 1.53 1.66 1.81 2.03 2.21 2.30 2.29 2.22 2.06 1.98 1.93 1.88 1.87 1.91 1.97 1.96 1.77 1.68 1.57 1.52 1.49 1.42 1.35 1.33 1.27 1.27 1.39 1.30 1.10 0.95 0.86 0.77 0.70 0.68 0.68 0.66 0.70 0.74 0.78 0.75 0.73
1.13 1.28 1.51 1.67 1.76 1.93 2.09 2.12 2.23 2.21 2.13 2.01 1.93 1.89 1.84 1.85 1.96 2.06 1.96 1.84 1.75 1.65 1.61 1.64 1.60 1.52 1.43 1.33 1.42 1.53 1.42 1.27 1.04 0.83 0.77 0.72 0.75 0.79 0.87 0.89 0.92 0.91 0.86
1.03 1.16 1.36 1.64 1.80 1.87 2.08 2.36 2.56 2.63 2.45 2.29 2.10 1.95 1.84 1.82 1.86 1.99 2.07 2.02 1.97 1.91 1.78 1.66 1.67 1.66 1.64 1.49 1.38 1.65 1.67 1.33 1.00 0.82 0.72 0.66 0.68 0.70 0.70 0.75 0.79 0.83 0.90
0.96 1.15 1.32 1.45 1.71 1.94 2.09 2.34 2.56 2.67 2.50 2.16 2.02 1.98 1.92 1.84 1.83 1.86 1.93 1.97 1.94 1.91 1.82 1.70 1.61 1.57 1.67 1.70 1.52 1.36 1.31 1.24 1.24 1.04 0.79 0.67 0.65 0.66 0.63 0.62 0.63 0.66 0.77
0.90 1.11 1.31 1.41 1.61 1.90 2.10 2.21 2.48 2.63 2.52 2.34 2.21 2.07 1.94 1.90 1.87 1.82 1.82 1.87 1.92 1.88 1.84 1.78 1.72 1.72 1.72 1.71 1.65 1.46 1.26 1.10 1.09 1.18 0.99 0.79 0.72 0.68 0.65 0.62 0.62 0.61 0.63
0.87 1.02 1.24 1.41 1.50 1.77 2.04 2.21 2.36 2.56 2.66 2.54 2.40 2.27 2.11 2.02 1.96 1.89 1.78 1.80 1.88 1.91 1.89 1.89 1.86 1.85 1.87 1.78 1.67 1.59 1.57 1.53 1.31 1.22 1.09 0.84 0.79 0.75 0.73 0.71 0.70 0.67 0.65